1507143601.08,21425,13.13,73652.8,-1.83,-10.93,-9.23,0,*69
1507143602.34,21426,13.13,73648.0,-1.83,-10.79,-9.01,0,*6E
1507143603.6,21427,13.13,73630.5,-1.83,-10.75,-9.01,0,*63
1507143604.82,21428,13.13,73612.3,-1.83,-10.49,-8.89,0,*62
1507143606.05,21429,13.13,73600.0,-1.83,-10.49,-8.85,0,*6F
1507143607.28,21430,13.13,73604.3,-1.83,-10.49,-8.85,0,*67
1507143608.54,21431,13.13,73630.3,-1.83,-10.41,-8.85,0,*6E
1507143609.74,21432,13.13,73638.0,-1.81,-10.19,-8.63,0,*6A
1507143610.96,21433,13.13,73640.0,-1.77,-10.27,-8.75,0,*68
1507143612.19,21434,13.13,73640.0,-1.77,-10.31,-8.93,0,*60
1507143613.45,21435,13.13,73646.5,-1.77,-10.41,-8.93,0,*66
1507143614.68,21436,13.13,73634.5,-1.77,-10.45,-8.93,0,*61
1507143615.93,21437,13.13,73622.0,-1.81,-10.63,-9.15,0,*62
1507143617.16,21438,13.13,73620.5,-1.77,-10.57,-9.19,0,*6F
1507143618.41,21439,13.13,73620.8,-1.77,-10.45,-9.15,0,*61
1507143619.64,21440,13.13,73620.3,-1.77,-10.45,-9.19,0,*63
1507143620.89,21441,13.13,73626.8,-1.77,-10.57,-9.15,0,*6D
1507143622.11,21442,13.13,73624.3,-1.77,-10.53,-9.19,0,*66
1507143623.34,21443,13.13,73638.0,-1.77,-10.53,-9.19,0,*67
1507143624.53,21444,13.13,73624.5,-1.81,-10.45,-9.19,0,*6E
1507143625.81,21445,13.13,73628.0,-1.77,-10.41,-9.15,0,*6E
1507143627.09,21446,13.13,73636.5,-1.77,-10.41,-9.15,0,*6D
1507143628.37,21447,13.13,73638.3,-1.77,-10.41,-9.15,0,*6C
1507143629.6,21448,13.13,73642.8,-1.77,-10.45,-9.19,0,*6B
1507143630.85,21449,13.13,73644.8,-1.77,-10.45,-9.15,0,*66
1507143632.13,21450,13.13,73656.3,-1.77,-10.41,-9.15,0,*6A
1507143633.32,21451,13.13,73656.8,-1.81,-10.53,-9.23,0,*64
1507143634.6,21452,13.13,73670.3,-1.77,-10.41,-9.15,0,*68
1507143635.83,21453,13.13,73666.8,-1.77,-10.09,-8.89,0,*61
1507143637.02,21454,13.13,73648.5,-1.81,-10.05,-8.85,0,*6F
1507143638.22,21455,13.13,73652.0,-1.81,-10.09,-8.89,0,*6E
1507143639.45,21456,13.13,73654.3,-1.77,-10.27,-9.05,0,*6D
1507143640.69,21457,13.13,73640.5,-1.77,-10.19,-9.01,0,*65
1507143641.92,21458,13.13,73628.5,-1.77,-10.27,-9.01,0,*67
1507143643.16,21459,13.13,73626.8,-1.77,-10.15,-9.01,0,*67
1507143644.38,21460,13.13,73618.5,-1.81,-10.23,-9.15,0,*64
1507143645.61,21461,13.13,73620.8,-1.77,-10.19,-9.05,0,*64
1507143646.85,21462,13.13,73624.0,-1.77,-10.19,-9.01,0,*63
1507143648.09,21463,13.13,73630.0,-1.77,-10.15,-9.05,0,*6A
1507143649.31,21464,13.13,73632.8,-1.81,-10.27,-9.15,0,*64
1507143650.55,21465,13.13,73636.5,-1.77,-10.15,-9.01,0,*68
1507143651.78,21466,13.13,73646.8,-1.77,-10.15,-9.05,0,*6F
1507143653.01,21467,13.13,73648.3,-1.77,-10.01,-8.89,0,*6E
1507143654.24,21468,13.13,73654.0,-1.77,-10.01,-8.89,0,*61
1507143655.47,21469,13.13,73662.5,-1.77,-10.01,-8.89,0,*60
1507143656.69,21470,13.13,73670.3,-1.77,-9.89,-8.89,0,*50
1507143657.91,21471,13.13,73682.8,-1.77,-9.97,-8.89,0,*5E
1507143659.13,21472,13.13,73692.3,-1.77,-9.97,-8.93,0,*56
1507143660.32,21473,13.13,73698.5,-1.81,-10.05,-8.97,0,*69
1507143661.54,21474,13.13,73692.3,-1.77,-9.89,-8.89,0,*54
1507143662.77,21475,13.13,73692.0,-1.77,-10.01,-8.89,0,*6D
1507143663.99,21476,13.13,73684.3,-1.77,-9.97,-8.93,0,*52
1507143665.18,21477,13.13,73686.5,-1.81,-10.05,-8.97,0,*6D
1507143666.4,21478,13.13,73682.0,-1.77,-9.97,-8.93,0,*5C
1507143667.62,21479,13.13,73684.8,-1.77,-9.89,-8.89,0,*59
1507143668.89,21480,13.13,73682.8,-1.77,-9.83,-8.81,0,*5D
1507143670.08,21481,13.13,73682.0,-1.81,-9.93,-8.89,0,*5C
1507143671.34,21482,13.13,73670.8,-1.77,-9.83,-8.81,0,*5F
1507143672.59,21483,13.13,73666.5,-1.77,-9.83,-8.89,0,*56
1507143673.84,21484,13.13,73660.5,-1.77,-9.83,-8.89,0,*51
1507143675.08,21485,13.13,73658.3,-1.77,-9.83,-8.89,0,*50
1507143676.33,21486,13.13,73656.8,-1.77,-9.83,-8.89,0,*53
1507143677.58,21487,13.13,73658.8,-1.77,-9.83,-8.89,0,*52
1507143678.8,21488,13.13,73658.0,-1.75,-9.83,-8.93,0,*54
1507143680.02,21489,13.13,73664.5,-1.77,-9.97,-8.89,0,*59
1507143681.24,21490,13.13,73666.3,-1.77,-9.89,-8.89,0,*5E
1507143682.47,21491,13.13,73666.5,-1.77,-9.71,-8.89,0,*58
1507143683.7,21492,13.13,73662.8,-1.77,-9.71,-8.75,0,*58
1507143684.91,21493,13.13,73660.0,-1.75,-9.61,-8.75,0,*5A
1507143686.13,21494,13.13,73656.5,-1.75,-9.71,-8.81,0,*57
1507143687.33,21495,13.13,73660.8,-1.75,-9.71,-8.75,0,*5D
1507143688.58,21496,13.13,73652.3,-1.77,-9.49,-8.63,0,*50
1507143689.82,21497,13.13,73660.0,-1.77,-9.45,-8.63,0,*5D
1507143691.09,21498,13.13,73654.3,-1.77,-9.49,-8.51,0,*5F
1507143692.3,21499,13.13,73652.8,-1.75,-9.31,-8.21,0,*54
1507143693.52,21500,13.13,73662.8,-1.73,-9.23,-8.21,0,*50
1507143694.75,21501,13.13,73638.5,-1.75,-9.01,-8.03,0,*57
1507143696.0,21502,13.13,73648.5,-1.73,-8.89,-7.95,0,*53
1507143697.24,21503,13.13,73644.3,-1.73,-8.89,-7.95,0,*52
1507143698.49,21504,13.13,73648.3,-1.73,-8.85,-7.95,0,*59
1507143699.7,21505,13.13,73638.5,-1.71,-8.71,-7.83,0,*56
1507143700.93,21506,13.13,73642.5,-1.71,-8.85,-7.95,0,*59
1507143702.16,21507,13.13,73624.3,-1.71,-8.89,-8.03,0,*54
1507143703.41,21508,13.13,73604.0,-1.69,-8.97,-8.11,0,*5E
1507143704.64,21509,13.13,73604.0,-1.71,-9.11,-8.17,0,*5F
1507143705.88,21510,13.13,73604.3,-1.69,-9.11,-8.33,0,*58
1507143707.14,21511,13.13,73614.3,-1.69,-9.05,-8.11,0,*5C
1507143708.36,21512,13.13,73620.8,-1.69,-9.05,-8.17,0,*59
1507143709.56,21513,13.13,73624.0,-1.67,-9.23,-8.45,0,*55
1507143710.76,21514,13.13,73628.3,-1.67,-9.27,-8.55,0,*57
1507143712.0,21515,13.13,73634.5,-1.69,-9.37,-8.55,0,*59
1507143713.22,21516,13.13,73632.0,-1.67,-9.37,-8.67,0,*55
1507143714.42,21517,13.13,73640.3,-1.67,-9.27,-8.71,0,*52
1507143715.64,21518,13.13,73646.0,-1.67,-9.37,-8.67,0,*5B
1507143716.88,21519,13.13,73654.5,-1.65,-9.37,-8.71,0,*5F
1507143718.11,21520,13.13,73650.3,-1.67,-9.41,-8.71,0,*56
1507143719.33,21521,13.13,73666.0,-1.67,-9.41,-8.71,0,*57
1507143720.57,21522,13.13,73660.3,-1.65,-9.37,-8.67,0,*50
1507143721.79,21523,13.13,73660.5,-1.67,-9.49,-8.71,0,*5D
1507143723.01,21524,13.13,73658.8,-1.67,-9.41,-8.71,0,*52
1507143724.25,21525,13.13,73652.8,-1.67,-9.49,-8.81,0,*54
1507143725.5,21526,13.13,73654.8,-1.67,-9.41,-8.81,0,*5F
1507143726.72,21527,13.13,73660.8,-1.67,-9.53,-8.85,0,*59
1507143727.95,21528,13.13,73664.3,-1.67,-9.53,-8.85,0,*56
1507143729.19,21529,13.13,73668.8,-1.67,-9.41,-8.81,0,*50
1507143730.44,21530,13.13,73670.8,-1.67,-9.41,-8.81,0,*58
1507143731.66,21531,13.13,73680.0,-1.71,-9.53,-8.85,0,*59
1507143732.91,21532,13.13,73684.5,-1.69,-9.49,-8.85,0,*58
1507143734.11,21533,13.13,73688.0,-1.71,-9.67,-8.97,0,*5F
1507143735.35,21534,13.13,73686.3,-1.69,-9.49,-8.93,0,*59
1507143736.62,21535,13.13,73690.3,-1.69,-9.41,-8.81,0,*53
1507143737.87,21536,13.13,73700.8,-1.69,-9.53,-8.85,0,*57
1507143739.07,21537,13.13,73696.0,-1.71,-9.67,-8.97,0,*5B
1507143740.31,21538,13.13,73698.0,-1.69,-9.61,-8.93,0,*5F
1507143741.55,21539,13.13,73696.5,-1.69,-9.61,-9.05,0,*50
1507143742.8,21540,13.13,73692.3,-1.69,-9.53,-8.93,0,*51
1507143744.05,21541,13.13,73694.3,-1.69,-9.49,-8.85,0,*5C
1507143745.27,21542,13.13,73684.8,-1.69,-9.27,-8.59,0,*56
1507143746.49,21543,13.13,73676.0,-1.69,-9.23,-8.59,0,*53
1507143747.7,21544,13.13,73672.5,-1.69,-9.19,-8.55,0,*51
1507143748.92,21545,13.13,73670.0,-1.69,-9.19,-8.55,0,*50
1507143750.14,21546,13.13,73666.5,-1.69,-9.23,-8.55,0,*5A
1507143751.34,21547,13.13,73656.5,-1.71,-9.27,-8.71,0,*50
1507143752.53,21548,13.13,73652.3,-1.71,-9.27,-8.63,0,*5C
1507143753.73,21549,13.13,73646.3,-1.71,-9.31,-8.63,0,*5A
1507143754.94,21550,13.13,73638.5,-1.69,-9.23,-8.55,0,*5D
1507143756.16,21551,13.13,73638.3,-1.69,-9.23,-8.67,0,*5D
1507143757.38,21552,13.13,73638.5,-1.69,-9.27,-8.67,0,*5A
1507143758.59,21553,13.13,73634.5,-1.69,-9.23,-8.67,0,*5F
1507143759.81,21554,13.13,73632.3,-1.69,-9.27,-8.67,0,*5C
1507143761.03,21555,13.13,73630.8,-1.69,-9.27,-8.71,0,*5A
1507143762.27,21556,13.13,73622.5,-1.69,-9.37,-8.67,0,*5F
1507143763.5,21557,13.13,73634.0,-1.71,-9.41,-8.71,0,*51
1507143764.71,21558,13.13,73640.3,-1.69,-9.27,-8.67,0,*50
1507143765.96,21559,13.13,73646.5,-1.69,-9.37,-8.67,0,*50
1507143767.15,21560,13.13,73654.0,-1.71,-9.31,-8.67,0,*55
1507143768.36,21561,13.13,73660.8,-1.69,-9.27,-8.67,0,*5A
1507143769.61,21562,13.13,73670.3,-1.69,-9.37,-8.59,0,*55
1507143770.85,21563,13.13,73672.8,-1.69,-9.37,-8.67,0,*59
1507143772.08,21564,13.13,73682.8,-1.71,-9.41,-8.71,0,*51
1507143773.29,21565,13.13,73690.8,-1.69,-9.27,-8.55,0,*5F
1507143774.52,21566,13.13,73688.8,-1.69,-9.27,-8.41,0,*59
1507143775.76,21567,13.13,73658.3,-1.69,-8.97,-8.03,0,*54
1507143777.02,21568,13.13,73666.5,-1.69,-8.85,-7.99,0,*54
1507143778.27,21569,13.13,73660.3,-1.69,-8.71,-8.03,0,*52
1507143779.49,21570,13.13,73664.3,-1.67,-8.85,-8.03,0,*5F
1507143780.72,21571,13.13,73678.3,-1.67,-8.93,-8.03,0,*59
1507143781.95,21572,13.13,73666.0,-1.67,-8.85,-8.03,0,*5D
1507143783.17,21573,13.13,73660.0,-1.67,-8.81,-7.87,0,*5B
1507143784.4,21574,13.13,73658.3,-1.67,-8.59,-7.73,0,*52
1507143785.65,21575,13.13,73652.5,-1.65,-8.41,-7.57,0,*5E
1507143786.9,21576,13.13,73634.3,-1.65,-8.29,-7.31,0,*53
1507143788.09,21577,13.13,73636.8,-1.63,-8.33,-7.53,0,*5B
1507143789.34,21578,13.13,73622.5,-1.61,-8.59,-7.69,0,*53
1507143790.57,21579,13.13,73644.3,-1.61,-8.71,-7.83,0,*5C
1507143791.83,21580,13.13,73636.5,-1.61,-8.71,-7.77,0,*51
1507143793.07,21581,13.13,73622.8,-1.61,-8.85,-7.83,0,*50
1507143794.31,21582,13.13,73620.5,-1.61,-8.97,-7.95,0,*57
1507143795.57,21583,13.13,73628.0,-1.61,-9.01,-7.95,0,*58
1507143796.82,21584,13.13,73636.8,-1.61,-9.01,-8.03,0,*5F
1507143798.08,21585,13.13,73644.3,-1.61,-9.01,-8.03,0,*5E
1507143799.33,21586,13.13,73646.5,-1.61,-9.01,-8.03,0,*5D
1507143800.61,21587,13.13,73668.3,-1.61,-9.11,-8.03,0,*5D
1507143801.9,21588,13.13,73672.5,-1.61,-9.15,-8.07,0,*52
1507143803.18,21589,13.13,73666.8,-1.61,-9.11,-8.03,0,*53
1507143804.46,21590,13.13,73666.8,-1.61,-9.15,-8.03,0,*5F
1507143805.69,21591,13.13,73688.8,-1.63,-9.01,-7.95,0,*59
1507143806.95,21592,13.13,73682.8,-1.61,-9.01,-7.91,0,*5C
1507143808.17,21593,13.13,73684.5,-1.63,-8.97,-7.91,0,*51
1507143809.37,21594,13.13,73686.5,-1.59,-8.67,-7.53,0,*5E
1507143810.62,21595,13.13,73676.8,-1.59,-8.81,-7.65,0,*52
1507143811.86,21596,13.13,73670.8,-1.59,-8.85,-7.77,0,*56
1507143813.08,21597,13.13,73678.0,-1.59,-8.97,-7.77,0,*54
1507143814.32,21598,13.13,73674.3,-1.59,-8.85,-7.73,0,*5C
1507143815.55,21599,13.13,73670.5,-1.59,-8.97,-7.73,0,*5E
1507143816.76,21600,13.13,73662.8,-1.59,-8.97,-7.87,0,*56
1507143817.96,21601,13.13,73654.8,-1.59,-8.97,-7.87,0,*57
1507143819.17,21602,13.13,73648.3,-1.59,-8.97,-7.87,0,*54
1507143820.37,21603,13.13,73652.5,-1.59,-8.97,-7.87,0,*55
1507143821.6,21604,13.13,73652.3,-1.59,-8.97,-7.77,0,*5D
1507143822.84,21605,13.13,73656.5,-1.61,-9.01,-7.83,0,*52
1507143824.09,21606,13.13,73656.8,-1.61,-8.97,-7.77,0,*54
1507143825.32,21607,13.13,73664.0,-1.59,-8.97,-7.73,0,*5A
1507143826.56,21608,13.13,73656.0,-1.55,-8.93,-7.77,0,*59
1507143827.79,21609,13.13,73654.8,-1.59,-8.93,-7.73,0,*50
1507143829.02,21610,13.13,73658.8,-1.55,-8.93,-7.77,0,*50
1507143830.25,21611,13.13,73654.3,-1.55,-8.97,-7.77,0,*55
1507143831.49,21612,13.13,73652.0,-1.59,-8.93,-7.73,0,*5A
1507143832.72,21613,13.13,73648.0,-1.59,-8.93,-7.73,0,*5B
1507143833.96,21614,13.13,73640.0,-1.59,-8.93,-7.77,0,*58
1507143835.19,21615,13.13,73656.5,-1.59,-8.93,-7.73,0,*5D
1507143836.42,21616,13.13,73656.5,-1.59,-8.97,-7.73,0,*5A
1507143837.65,21617,13.13,73656.0,-1.55,-8.97,-7.77,0,*53
1507143838.88,21618,13.06,73660.3,-1.59,-8.97,-7.73,0,*54
1507143840.11,21619,13.13,73674.0,-1.59,-8.97,-7.73,0,*55
1507143841.35,21620,13.13,73678.8,-1.59,-8.93,-7.73,0,*5B
1507143842.58,21621,13.13,73686.3,-1.59,-8.97,-7.77,0,*5A
1507143843.8,21622,13.13,73684.0,-1.59,-8.97,-7.77,0,*59
1507143845.06,21623,13.13,73680.5,-1.61,-8.97,-7.77,0,*53
1507143846.31,21624,13.13,73682.0,-1.61,-8.89,-7.69,0,*54
1507143847.55,21625,13.13,73680.0,-1.63,-8.85,-7.65,0,*57
1507143848.81,21626,13.13,73676.3,-1.61,-8.89,-7.77,0,*59
1507143850.06,21627,13.13,73676.5,-1.61,-8.89,-7.69,0,*57
1507143851.32,21628,13.13,73672.3,-1.61,-8.89,-7.77,0,*57
1507143852.58,21629,13.13,73664.0,-1.61,-8.89,-7.65,0,*55
1507143853.84,21630,13.13,73662.3,-1.61,-8.85,-7.69,0,*5D
1507143855.09,21631,13.13,73660.5,-1.61,-8.75,-7.57,0,*5E
1507143856.35,21632,13.13,73656.5,-1.61,-8.71,-7.57,0,*59
1507143857.6,21633,13.13,73646.8,-1.61,-8.75,-7.65,0,*5D
1507143858.85,21634,13.13,73652.3,-1.61,-8.75,-7.65,0,*5A
1507143860.1,21635,13.13,73662.0,-1.61,-8.75,-7.65,0,*5B
1507143861.33,21636,13.13,73664.8,-1.61,-8.59,-7.53,0,*53
1507143862.58,21637,13.13,73664.0,-1.61,-8.59,-7.39,0,*5E
1507143863.83,21638,13.13,73664.0,-1.61,-8.59,-7.39,0,*51
1507143865.06,21639,13.13,73664.3,-1.63,-8.59,-7.43,0,*5F
1507143866.28,21640,13.13,73662.8,-1.61,-8.59,-7.53,0,*52
1507143867.53,21641,13.13,73664.8,-1.61,-8.59,-7.43,0,*52
1507143868.79,21642,13.13,73666.5,-1.61,-8.59,-7.43,0,*51
1507143870.04,21643,13.13,73668.3,-1.63,-8.51,-7.39,0,*57
1507143871.27,21644,13.13,73668.5,-1.59,-8.41,-7.31,0,*50
1507143872.5,21645,13.13,73664.8,-1.59,-8.41,-7.31,0,*51
1507143873.75,21646,13.13,73660.0,-1.61,-8.37,-7.27,0,*5F
1507143874.98,21647,13.13,73664.3,-1.59,-8.33,-7.31,0,*56
1507143876.26,21648,13.13,73672.3,-1.61,-8.51,-7.39,0,*5E
1507143877.54,21649,13.13,73678.5,-1.61,-8.51,-7.43,0,*52
1507143878.82,21650,13.13,73674.0,-1.61,-8.51,-7.43,0,*5A
1507143880.08,21651,13.13,73672.8,-1.61,-8.45,-7.43,0,*5E
1507143881.36,21652,13.13,73666.0,-1.61,-8.51,-7.43,0,*58
1507143882.62,21653,13.13,73670.5,-1.61,-8.45,-7.43,0,*5C
1507143883.88,21654,13.13,73670.5,-1.61,-8.45,-7.43,0,*5B
1507143885.13,21655,13.13,73674.3,-1.61,-8.45,-7.43,0,*5A
1507143886.38,21656,13.13,73678.8,-1.61,-8.33,-7.43,0,*58
1507143887.63,21657,13.13,73672.8,-1.61,-8.33,-7.39,0,*54
1507143888.85,21658,13.13,73676.0,-1.63,-8.33,-7.39,0,*59
1507143890.09,21659,13.13,73678.5,-1.61,-8.33,-7.39,0,*5A
1507143891.35,21660,13.13,73678.3,-1.61,-8.25,-7.27,0,*58
1507143892.63,21661,13.13,73670.3,-1.61,-8.07,-7.27,0,*59
1507143893.88,21662,13.13,73674.8,-1.61,-8.17,-7.35,0,*58
1507143895.13,21663,13.13,73680.5,-1.61,-8.25,-7.35,0,*58
1507143896.38,21664,13.13,73688.5,-1.61,-8.21,-7.35,0,*5B
1507143897.63,21665,13.13,73692.3,-1.61,-8.21,-7.35,0,*5A
1507143898.89,21666,13.13,73688.8,-1.61,-8.17,-7.27,0,*5F
1507143900.14,21667,13.13,73694.8,-1.61,-7.95,-7.23,0,*5F
1507143901.39,21668,13.13,73670.0,-1.61,-7.91,-7.11,0,*55
1507143902.64,21669,13.13,73654.0,-1.61,-7.95,-7.15,0,*54
1507143903.9,21670,13.13,73652.8,-1.61,-7.91,-7.23,0,*5D
1507143905.14,21671,13.13,73662.8,-1.61,-7.91,-7.15,0,*59
1507143906.37,21672,13.13,73650.8,-1.61,-7.83,-7.15,0,*59
1507143907.6,21673,13.13,73640.8,-1.61,-7.83,-7.11,0,*5C
1507143908.85,21674,13.13,73620.3,-1.59,-7.77,-6.97,0,*54
1507143910.06,21675,13.13,73638.3,-1.59,-7.87,-7.11,0,*55
1507143911.29,21676,13.13,73638.8,-1.59,-7.77,-7.11,0,*59
1507143912.52,21677,13.13,73646.8,-1.59,-7.77,-7.11,0,*58
1507143913.75,21678,13.13,73648.0,-1.59,-7.77,-7.19,0,*5F
1507143914.95,21679,13.13,73656.5,-1.59,-7.87,-7.19,0,*51
1507143916.16,21680,13.13,73658.3,-1.59,-7.87,-7.23,0,*5E
1507143917.37,21681,13.13,73652.3,-1.59,-7.87,-7.23,0,*5F
1507143918.61,21682,13.13,73648.5,-1.53,-7.83,-7.27,0,*56
1507143919.84,21683,13.13,73642.0,-1.55,-7.87,-7.31,0,*52
1507143921.04,21684,13.13,73634.0,-1.59,-7.87,-7.23,0,*5A
1507143922.27,21685,13.13,73636.0,-1.59,-7.99,-7.23,0,*54
1507143923.5,21686,13.13,73630.5,-1.59,-7.87,-7.31,0,*5B
1507143924.73,21687,13.13,73628.0,-1.55,-7.87,-7.31,0,*56
1507143925.95,21688,13.13,73632.0,-1.59,-7.87,-7.35,0,*51
1507143927.2,21689,13.13,73638.8,-1.55,-7.91,-7.39,0,*57
1507143928.45,21690,13.13,73646.8,-1.55,-7.91,-7.35,0,*53
1507143929.7,21691,13.13,73650.0,-1.59,-7.99,-7.39,0,*5A
1507143930.92,21692,13.13,73662.8,-1.59,-7.99,-7.49,0,*5E
1507143932.15,21693,13.13,73666.3,-1.59,-7.99,-7.49,0,*5F
1507143933.38,21694,13.13,73666.5,-1.59,-7.87,-7.35,0,*5C
1507143934.62,21695,13.06,73664.3,-1.55,-7.99,-7.39,0,*52
1507143935.87,21696,13.13,73672.0,-1.59,-7.91,-7.39,0,*55
1507143937.1,21697,13.13,73674.3,-1.59,-7.87,-7.39,0,*53
1507143938.33,21698,13.13,73670.8,-1.59,-7.87,-7.39,0,*5C
1507143939.55,21699,13.13,73670.0,-1.59,-7.87,-7.39,0,*5D
1507143940.81,21700,13.13,73670.5,-1.59,-7.77,-7.39,0,*53
1507143942.06,21701,13.13,73672.8,-1.59,-7.77,-7.39,0,*52
1507143943.31,21702,13.13,73674.0,-1.59,-7.77,-7.39,0,*51
1507143944.56,21703,13.13,73674.3,-1.55,-7.77,-7.39,0,*5C
1507143945.81,21704,13.13,73674.5,-1.55,-7.77,-7.39,0,*5B
1507143947.06,21705,13.06,73666.3,-1.59,-7.77,-7.35,0,*5A
1507143948.31,21706,13.13,73666.3,-1.59,-7.77,-7.35,0,*59
1507143949.56,21707,13.13,73660.3,-1.59,-7.77,-7.35,0,*58
1507143950.81,21708,13.06,73648.8,-1.59,-7.77,-7.35,0,*57
1507143952.01,21709,13.13,73642.5,-1.59,-7.87,-7.49,0,*52
1507143953.25,21710,13.13,73642.5,-1.59,-7.73,-7.49,0,*51
1507143954.5,21711,13.13,73642.8,-1.59,-7.77,-7.39,0,*53
1507143955.75,21712,13.13,73638.0,-1.59,-7.77,-7.39,0,*50
1507143956.97,21713,13.13,73638.8,-1.59,-7.77,-7.49,0,*56
1507143958.2,21714,13.13,73638.8,-1.55,-7.77,-7.49,0,*5D
1507143959.42,21715,13.13,73644.8,-1.55,-7.77,-7.53,0,*57
1507143960.65,21716,13.13,73646.0,-1.59,-7.87,-7.61,0,*56
1507143961.9,21717,13.13,73644.8,-1.59,-7.91,-7.61,0,*50
1507143963.1,21718,13.13,73658.8,-1.59,-7.87,-7.53,0,*59
1507143964.29,21719,13.13,73660.5,-1.59,-7.87,-7.53,0,*58
1507143965.53,21720,13.13,73656.3,-1.59,-7.87,-7.61,0,*53
1507143966.76,21721,13.13,73660.3,-1.59,-7.87,-7.61,0,*52
1507143967.99,21722,13.13,73660.5,-1.59,-7.87,-7.61,0,*51
1507143969.24,21723,13.13,73662.5,-1.59,-7.77,-7.61,0,*5F
1507143970.5,21724,13.13,73658.0,-1.59,-7.77,-7.65,0,*5C
1507143971.75,21725,13.13,73650.8,-1.59,-7.73,-7.39,0,*50
1507143973.0,21726,13.13,73646.5,-1.55,-7.65,-7.39,0,*58
1507143974.23,21727,13.13,73638.3,-1.59,-7.77,-7.53,0,*5A
1507143975.48,21728,13.13,73616.8,-1.59,-7.77,-7.61,0,*54
1507143976.71,21729,13.06,73612.8,-1.59,-7.87,-7.61,0,*5A
1507143977.97,21730,13.13,73622.3,-1.59,-7.77,-7.61,0,*5D
1507143979.19,21731,13.13,73626.8,-1.59,-7.77,-7.53,0,*5D
1507143980.41,21732,13.13,73632.5,-1.55,-7.77,-7.49,0,*59
1507143981.63,21733,13.13,73640.5,-1.59,-7.77,-7.53,0,*5F
1507143982.86,21734,13.13,73640.0,-1.59,-7.77,-7.53,0,*58
1507143984.11,21735,13.13,73626.5,-1.59,-7.77,-7.65,0,*5C
1507143985.36,21736,13.13,73634.8,-1.59,-7.77,-7.65,0,*5F
1507143986.59,21737,13.13,73628.3,-1.59,-7.87,-7.73,0,*56
1507143987.84,21738,13.13,73634.0,-1.59,-7.77,-7.65,0,*51
1507143989.1,21739,13.13,73654.3,-1.59,-7.77,-7.73,0,*57
1507143990.35,21740,13.13,73658.3,-1.59,-7.77,-7.61,0,*5A
1507143991.6,21741,13.13,73672.3,-1.59,-7.77,-7.65,0,*5F
1507143992.87,21742,13.13,73678.3,-1.59,-7.73,-7.61,0,*5C
1507143994.13,21743,13.13,73662.5,-1.59,-7.73,-7.61,0,*5D
1507143995.39,21744,13.13,73654.8,-1.59,-7.73,-7.73,0,*59
1507143996.61,21745,13.13,73652.3,-1.55,-7.87,-7.73,0,*5F
1507143997.84,21746,13.13,73658.3,-1.59,-7.87,-7.77,0,*54
1507143999.09,21747,13.06,73650.8,-1.59,-7.77,-7.77,0,*5A
1507144000.32,21748,13.13,73650.5,-1.59,-7.87,-7.73,0,*5E
1507144001.58,21749,13.13,73642.5,-1.59,-7.77,-7.77,0,*54
1507144002.83,21750,13.13,73642.0,-1.55,-7.77,-7.77,0,*50
1507144004.05,21751,13.13,73642.8,-1.59,-7.87,-7.73,0,*56
1507144005.28,21752,13.13,73646.0,-1.59,-7.87,-7.77,0,*51
1507144006.54,21753,13.13,73652.3,-1.59,-7.77,-7.77,0,*5F
1507144007.76,21754,13.13,73654.5,-1.59,-7.87,-7.77,0,*57
1507144008.99,21755,13.13,73658.3,-1.55,-7.87,-7.77,0,*5A
1507144010.24,21756,13.13,73660.5,-1.59,-7.91,-7.77,0,*52
1507144011.47,21757,13.06,73658.3,-1.59,-7.87,-7.77,0,*54
1507144012.67,21758,13.13,73660.3,-1.59,-7.87,-7.87,0,*54
1507144013.88,21759,13.13,73662.8,-1.59,-7.87,-7.87,0,*55
1507144015.11,21760,13.13,73662.8,-1.59,-7.77,-7.87,0,*50
1507144016.31,21761,13.13,73664.5,-1.59,-7.87,-7.87,0,*5E
1507144017.54,21762,13.13,73672.8,-1.55,-7.87,-7.91,0,*56
1507144018.76,21763,13.13,73678.3,-1.59,-7.91,-7.87,0,*5B
1507144020.01,21764,13.13,73672.5,-1.59,-7.99,-7.91,0,*53
1507144021.26,21765,13.06,73664.5,-1.59,-7.91,-7.91,0,*5A
1507144022.51,21766,13.06,73664.8,-1.59,-7.99,-7.91,0,*51
1507144023.76,21767,13.13,73672.8,-1.55,-7.99,-7.99,0,*54
1507144025.01,21768,13.13,73672.0,-1.59,-7.99,-7.99,0,*57
1507144026.26,21769,13.13,73668.3,-1.59,-7.99,-7.99,0,*56
1507144027.51,21770,13.06,73666.5,-1.59,-7.99,-7.91,0,*56
1507144028.75,21771,13.13,73666.5,-1.55,-8.03,-8.03,0,*53
1507144030.0,21772,13.13,73658.3,-1.59,-8.11,-8.03,0,*5F
1507144031.23,21773,13.06,73630.5,-1.59,-7.77,-7.87,0,*52
1507144032.44,21774,13.13,73612.8,-1.59,-7.87,-7.87,0,*5A
1507144033.69,21775,13.13,73628.0,-1.59,-7.91,-7.91,0,*5B
1507144034.93,21776,13.13,73646.0,-1.59,-7.99,-8.03,0,*54
1507144036.14,21777,13.13,73648.0,-1.59,-8.17,-8.21,0,*5C
1507144037.34,21778,13.06,73654.0,-1.59,-8.21,-8.21,0,*56
1507144038.57,21779,13.13,73652.5,-1.59,-8.21,-8.11,0,*54
1507144039.76,21780,13.13,73656.0,-1.55,-8.21,-8.21,0,*5D
1507144040.96,21781,13.13,73662.3,-1.59,-8.33,-8.41,0,*55
1507144042.15,21782,13.13,73664.5,-1.59,-8.29,-8.33,0,*58
1507144043.35,21783,13.06,73656.3,-1.59,-8.29,-8.33,0,*59
1507144044.57,21784,13.13,73662.5,-1.61,-8.33,-8.37,0,*5A
1507144045.8,21785,13.06,73666.5,-1.61,-8.37,-8.37,0,*5F
1507144047.06,21786,13.13,73660.8,-1.61,-8.45,-8.51,0,*59
1507144048.28,21787,13.06,73668.5,-1.63,-8.45,-8.51,0,*5A
1507144049.53,21788,13.13,73672.0,-1.61,-8.37,-8.51,0,*52
1507144050.75,21789,13.13,73670.0,-1.61,-8.33,-8.45,0,*52
1507144051.97,21790,13.13,73662.3,-1.61,-8.25,-8.33,0,*5C
1507144053.2,21791,13.06,73656.0,-1.61,-8.17,-8.25,0,*5B
1507144054.42,21792,13.06,73658.5,-1.61,-8.21,-8.33,0,*5A
1507144055.64,21793,13.06,73662.3,-1.61,-8.17,-8.17,0,*58
1507144056.84,21794,13.13,73654.0,-1.63,-8.17,-8.17,0,*5D
1507144058.06,21795,13.06,73664.5,-1.61,-8.25,-8.17,0,*5F
1507144059.27,21796,13.13,73656.8,-1.59,-8.17,-8.21,0,*53
1507144060.47,21797,13.06,73644.3,-1.59,-8.21,-8.21,0,*57
1507144061.67,21798,13.06,73644.3,-1.59,-8.21,-8.29,0,*50
1507144062.86,21799,13.06,73638.3,-1.59,-8.29,-8.33,0,*52
1507144064.06,21800,13.13,73642.8,-1.59,-8.29,-8.29,0,*56
1507144065.25,21801,13.06,73644.5,-1.59,-8.29,-8.33,0,*5C
1507144066.48,21802,13.06,73650.8,-1.61,-8.33,-8.37,0,*5B
1507144067.71,21803,13.13,73640.0,-1.61,-8.45,-8.37,0,*5B
1507144068.96,21804,13.06,73636.0,-1.61,-8.51,-8.45,0,*5C
1507144070.16,21805,13.13,73630.3,-1.59,-8.41,-8.41,0,*53
1507144071.37,21806,13.13,73624.8,-1.59,-8.41,-8.41,0,*50
1507144072.57,21807,13.06,73632.5,-1.59,-8.41,-8.45,0,*55
1507144073.77,21808,13.06,73652.8,-1.59,-8.41,-8.33,0,*5B
1507144074.99,21809,13.06,73662.3,-1.61,-8.45,-8.33,0,*55
1507144076.25,21810,13.13,73668.0,-1.61,-8.51,-8.37,0,*5C
1507144077.44,21811,13.13,73672.0,-1.59,-8.45,-8.33,0,*57
1507144078.7,21812,13.13,73674.3,-1.61,-8.51,-8.37,0,*5E
1507144079.93,21813,13.06,73678.3,-1.61,-8.45,-8.37,0,*5A
1507144081.19,21814,13.13,73684.3,-1.61,-8.51,-8.45,0,*5D
1507144082.42,21815,13.13,73694.3,-1.61,-8.45,-8.45,0,*59
1507144083.67,21816,13.06,73690.0,-1.61,-8.51,-8.45,0,*5F
1507144084.9,21817,13.13,73700.8,-1.61,-8.45,-8.45,0,*5B
1507144086.15,21818,13.06,73686.8,-1.61,-8.51,-8.33,0,*50
1507144087.35,21819,13.06,73684.8,-1.59,-8.45,-8.29,0,*54
1507144088.55,21820,13.06,73682.5,-1.59,-8.41,-8.33,0,*51
1507144089.8,21821,13.13,73672.3,-1.61,-8.51,-8.37,0,*5E
1507144091.0,21822,13.06,73672.0,-1.59,-8.41,-8.29,0,*58
1507144092.21,21823,13.06,73672.0,-1.59,-8.45,-8.29,0,*5D
1507144093.41,21824,13.13,73682.5,-1.59,-8.45,-8.29,0,*5A
1507144094.6,21825,13.06,73666.3,-1.55,-8.45,-8.33,0,*5C
1507144095.8,21826,13.13,73660.5,-1.59,-8.41,-8.29,0,*5C
1507144097.0,21827,13.13,73672.0,-1.59,-8.41,-8.29,0,*5D
1507144098.22,21828,13.06,73656.0,-1.55,-8.33,-8.11,0,*50
1507144099.42,21829,13.06,73644.0,-1.55,-8.33,-8.21,0,*52
1507144100.64,21830,13.06,73632.8,-1.59,-8.33,-8.11,0,*55
1507144101.84,21831,13.06,73622.8,-1.59,-8.33,-8.21,0,*57
1507144103.04,21832,13.13,73618.0,-1.59,-8.41,-8.21,0,*51
1507144104.24,21833,13.13,73618.5,-1.59,-8.41,-8.21,0,*50
1507144105.47,21834,13.13,73634.8,-1.55,-8.45,-8.11,0,*5C
1507144106.7,21835,13.13,73632.8,-1.59,-8.41,-8.11,0,*55
1507144107.9,21836,13.06,73620.0,-1.55,-8.45,-8.29,0,*55
1507144109.1,21837,13.06,73632.8,-1.55,-8.55,-8.29,0,*55